Regional Weather Roundup
Issued by NWS

Home | Current Version | Previous Version | Graphics & Text | Print | Product List | Glossary On
Versions: 1 2 3 4 5 6 7 8 9 10 11 12 13 14 15 16 17 18 19 20 21 22 23 24 25 26 27 28 29 30 31 32 33 34 35 36 37 38 39 40 41 42 43 44 45 46 47 48 49 50
659
ASUS44 KLIX 272101
RWRLA
LOUISIANA WEATHER ROUNDUP
NATIONAL WEATHER SERVICE NEW ORLEANS LA
400 PM CDT WED AUG 27 2014

NOTE: "FAIR" INDICATES FEW OR NO CLOUDS BELOW 12,000 FEET WITH NO
      SIGNIFICANT WEATHER AND/OR OBSTRUCTIONS TO VISIBILITY.
      SKY/WX - SKY CONDITION AND SIGNIFICANT WEATHER.
      TMP - AIR TEMPERATURE.    DP   - DEWPOINT TEMPERATURE.
      RH  - RELATIVE HUMIDITY.  PRES - PRESSURE.
      HX  - HEAT INDEX.         WCI  - WIND CHILL INDEX.

*  THESE STATIONS ARE NOT NWS OR FAA STATIONS AND ARE NOT UNDER
   NWS QUALITY CONTROL.

LAZ040-048-061>063-065-066-069-272200-
SOUTHEAST LOUISIANA

CITY           SKY/WX    TMP DP  RH WIND       PRES   REMARKS
N.O. AUDUBON   NOT AVBL
N.O. INTL ARPT PTSUNNY   87  74  64 E10       29.98F HX  95
N.O. LAKEFRONT CLOUDY    86  75  69 E10       29.98F HX  95
N.O. DOWNTOWN* CLOUDY    84  72  65 SE7       30.00S
SLIDELL        PTSUNNY   82  72  71 W5        29.98F
BATON ROUGE    PTSUNNY   90  72  55 NE7       29.97F HX  97
BOOTHVILLE     MOSUNNY   87  76  69 E14       29.98F HX  97
BELLE CHASSE   TSTM      75  70  83 SW8G21    29.98F
BOGALUSA*      FAIR      91  71  50 SW14      29.99S HX  97
GALLIANO*      NOT AVBL
NEW ROADS*     FAIR      90  71  54 E6        29.97F HX  96
GONZALES*      FAIR      89  73  59 E5        29.97S HX  97
HAMMOND*       NOT AVBL
HOUMA*         MOSUNNY   84  73  70 NE9       29.98
PORT FOURCHON* CLEAR     88  75  66 NE13      29.97F HX  97

$$

LAZ041-044-053-054-272200-
SOUTHWEST LOUISIANA

CITY           SKY/WX    TMP DP  RH WIND       PRES   REMARKS
LAKE CHARLES   PTSUNNY   89  74  60 E10       29.95F HX  98
LAFAYETTE      PTSUNNY   90  74  59 NE8       29.96F HX  99
PATTERSON      CLOUDY    84  73  70 E9        30.00S
SALT POINT       N/A     89  76  65 VRB7      29.96F HX 100
NEW IBERIA     PTSUNNY   90  74  59 E14G22    29.97F HX  99
CHENAULT AIRPK MOSUNNY   90  72  55 E7        29.97F HX  96

$$

LAZ027-028-272200-
CENTRAL LOUISIANA

CITY           SKY/WX    TMP DP  RH WIND       PRES   REMARKS
FORT POLK      PTSUNNY   91  69  48 SE12      29.97F HX  96
ALEXANDRIA INT SUNNY     91  69  48 CALM      29.96F HX  96
ALEXANDRIA     MOSUNNY   93  70  46 E6        29.98F HX  99

$$

LAZ001-002-272200-
NORTHWEST LOUISIANA

CITY           SKY/WX    TMP DP  RH WIND       PRES   REMARKS
SHREVEPORT     MOSUNNY   93  61  34 S7        29.99F
BARKSDALE AFB  SUNNY     94  62  33 SE6       30.00F
DTN SHREVEPORT SUNNY     93  63  36 E3        30.00F

$$

LAZ014-016-272200-
NORTHEAST LOUISIANA

CITY           SKY/WX    TMP DP  RH WIND       PRES   REMARKS
MONROE         SUNNY     92  65  40 VRB5      30.01F
TALLULAH       SUNNY     94  65  38 NE7       30.00F HX  96

$$




USA.gov is the U.S. government's official web portal to all federal, state and local government web resources and services.